| time (UTC) | temp F | wind direction | speed knots | gust knots | rain 1hr in | rain 24hr in | rain mn in | humidity % | barometer mb |
| 20260509221601 | 93 | 123 | 0.0 | 2.6 | 0.00 | 0.20 | 0.20 | 50 | 1007.8 |
| 20260509220100 | 90 | 0 | 0.0 | 3.5 | 0.00 | 0.20 | 0.20 | 53 | 1007.8 |
| 20260509214557 | 89 | 0 | 0.9 | 6.1 | 0.00 | 0.20 | 0.20 | 55 | 1008.0 |
| 20260509213059 | 88 | 123 | 0.9 | 6.1 | 0.00 | 0.20 | 0.20 | 55 | 1008.1 |
| 20260509211601 | 88 | 125 | 3.5 | 7.8 | 0.00 | 0.20 | 0.20 | 56 | 1008.3 |
| 20260509210111 | 88 | 106 | 0.9 | 7.8 | 0.00 | 0.20 | 0.20 | 56 | 1008.5 |
| 20260509204600 | 89 | 132 | 0.9 | 3.5 | 0.00 | 0.20 | 0.20 | 57 | 1008.7 |
| 20260509203100 | 90 | 0 | 1.7 | 3.5 | 0.00 | 0.20 | 0.20 | 56 | 1008.9 |
| 20260509201602 | 89 | 132 | 0.9 | 6.1 | 0.00 | 0.20 | 0.20 | 58 | 1009.2 |
| 20260509200104 | 88 | 132 | 0.0 | 3.5 | 0.00 | 0.20 | 0.20 | 59 | 1009.6 |
| 20260509194559 | 86 | 0 | 0.0 | 4.3 | 0.00 | 0.20 | 0.20 | 61 | 1009.5 |
| 20260509193100 | 86 | 0 | 0.0 | 4.3 | 0.00 | 0.20 | 0.20 | 69 | 1009.6 |
| 20260509191558 | 84 | 136 | 0.0 | 6.1 | 0.00 | 0.20 | 0.20 | 74 | 1009.7 |
| 20260509190110 | 84 | 202 | 0.0 | 4.3 | 0.00 | 0.20 | 0.20 | 75 | 1010.2 |
| 20260509184605 | 82 | 0 | 0.0 | 0.9 | 0.00 | 0.20 | 0.20 | 80 | 1010.5 |
| 20260509183059 | 79 | 0 | 0.0 | 1.7 | 0.00 | 0.20 | 0.20 | 85 | 1010.8 |
| 20260509181603 | 78 | 0 | 0.0 | 0.0 | 0.01 | 0.20 | 0.20 | 88 | 1010.9 |
| 20260509180103 | 78 | 0 | 0.0 | 1.7 | 0.02 | 0.20 | 0.20 | 89 | 1011.2 |
| 20260509174558 | 78 | 0 | 0.0 | 2.6 | 0.20 | 0.20 | 0.20 | 91 | 1011.1 |
| 20260509173101 | 78 | 0 | 0.0 | 1.7 | 0.20 | 0.20 | 0.20 | 92 | 1011.2 |
| 20260509171557 | 78 | 0 | 0.0 | 0.9 | 0.19 | 0.19 | 0.19 | 89 | 1011.3 |
| 20260509170105 | 79 | 0 | 0.0 | 2.6 | 0.18 | 0.18 | 0.18 | 85 | 1011.5 |
| 20260509164558 | 81 | 218 | 1.7 | 6.1 | 0.00 | 0.00 | 0.00 | 77 | 1011.4 |
| 20260509163104 | 82 | 219 | 1.7 | 6.1 | 0.00 | 0.00 | 0.00 | 78 | 1011.1 |
| 20260509161558 | 82 | 207 | 2.6 | 8.7 | 0.00 | 0.00 | 0.00 | 77 | 1011.3 |
| 20260509160058 | 84 | 0 | 0.0 | 3.5 | 0.00 | 0.00 | 0.00 | 73 | 1011.1 |
| 20260509154608 | 84 | 0 | 0.9 | 3.5 | 0.00 | 0.00 | 0.00 | 71 | 1011.0 |
| 20260509153057 | 83 | 0 | 0.0 | 4.3 | 0.00 | 0.00 | 0.00 | 73 | 1010.7 |
| 20260509151608 | 83 | 237 | 1.7 | 8.7 | 0.00 | 0.00 | 0.00 | 76 | 1010.5 |
| 20260509150111 | 82 | 233 | 0.9 | 8.7 | 0.00 | 0.00 | 0.00 | 79 | 1010.3 |
| 20260509144603 | 81 | 206 | 4.3 | 9.6 | 0.00 | 0.00 | 0.00 | 78 | 1010.0 |
| 20260509143107 | 80 | 225 | 1.7 | 10.4 | 0.00 | 0.00 | 0.00 | 82 | 1009.9 |
| 20260509141601 | 78 | 211 | 1.7 | 6.1 | 0.00 | 0.00 | 0.00 | 85 | 1009.9 |
| 20260509140106 | 77 | 202 | 1.7 | 7.8 | 0.00 | 0.00 | 0.00 | 89 | 1009.8 |
| 20260509134602 | 75 | 0 | 1.7 | 7.8 | 0.00 | 0.00 | 0.00 | 92 | 1009.9 |
| 20260509133110 | 74 | 196 | 2.6 | 8.7 | 0.00 | 0.00 | 0.00 | 94 | 1009.7 |
| 20260509131559 | 73 | 0 | 0.0 | 3.5 | 0.00 | 0.00 | 0.00 | 95 | 1009.8 |
| 20260509130059 | 72 | 162 | 0.9 | 6.1 | 0.00 | 0.00 | 0.00 | 95 | 1009.6 |
| 20260509124602 | 72 | 146 | 0.0 | 3.5 | 0.00 | 0.00 | 0.00 | 95 | 1009.6 |
| 20260509123106 | 71 | 0 | 0.0 | 0.9 | 0.00 | 0.00 | 0.00 | 95 | 1009.9 |
| 20260509121602 | 71 | 0 | 0.0 | 0.9 | 0.00 | 0.00 | 0.00 | 95 | 1010.2 |
| 20260509120104 | 71 | 0 | 0.0 | 0.9 | 0.00 | 0.00 | 0.00 | 95 | 1010.2 |
| 20260509114607 | 72 | 0 | 0.0 | 2.6 | 0.00 | 0.00 | 0.00 | 94 | 1010.6 |
| 20260509113109 | 72 | 0 | 0.0 | 0.0 | 0.00 | 0.00 | 0.00 | 95 | 1011.0 |
| 20260509111559 | 72 | 0 | 0.0 | 0.0 | 0.00 | 0.00 | 0.00 | 95 | 1011.1 |
| 20260509110057 | 72 | 0 | 0.0 | 0.0 | 0.00 | 0.00 | 0.00 | 94 | 1011.4 |
| 20260509104557 | 72 | 0 | 0.0 | 0.0 | 0.00 | 0.00 | 0.00 | 94 | 1011.8 |
| 20260509103058 | 72 | 0 | 0.0 | 0.0 | 0.00 | 0.00 | 0.00 | 94 | 1011.9 |
| 20260509101605 | 72 | 0 | 0.0 | 0.0 | 0.00 | 0.00 | 0.00 | 94 | 1011.4 |
| 20260509100058 | 72 | 0 | 0.0 | 0.9 | 0.00 | 0.00 | 0.00 | 94 | 1011.3 |
| 20260509094604 | 72 | 137 | 0.0 | 2.6 | 0.00 | 0.00 | 0.00 | 94 | 1010.8 |
| 20260509093106 | 72 | 0 | 0.0 | 0.9 | 0.00 | 0.00 | 0.00 | 94 | 1010.6 |
| 20260509091609 | 72 | 0 | 0.0 | 0.9 | 0.00 | 0.00 | 0.00 | 93 | 1010.0 |
| 20260509090120 | 72 | 0 | 0.0 | 2.6 | 0.00 | 0.00 | 0.00 | 93 | 1009.9 |
| 20260509084605 | 73 | 139 | 0.0 | 2.6 | 0.00 | 0.00 | 0.00 | 93 | 1010.0 |
| 20260509083108 | 73 | 0 | 0.0 | 1.7 | 0.00 | 0.00 | 0.00 | 93 | 1010.4 |
| 20260509081600 | 73 | 0 | 0.0 | 0.0 | 0.00 | 0.00 | 0.00 | 92 | 1010.4 |
| 20260509080110 | 73 | 0 | 0.0 | 0.0 | 0.00 | 0.00 | 0.00 | 92 | 1010.3 |
| 20260509074600 | 73 | 0 | 0.0 | 0.0 | 0.00 | 0.00 | 0.00 | 92 | 1010.6 |
| 20260509073113 | 73 | 0 | 0.0 | 0.9 | 0.00 | 0.00 | 0.00 | 91 | 1010.7 |
| 20260509071601 | 74 | 0 | 0.0 | 2.6 | 0.00 | 0.00 | 0.00 | 91 | 1011.1 |
| 20260509070100 | 74 | 0 | 0.0 | 2.6 | 0.00 | 0.00 | 0.00 | 91 | 1010.7 |
| 20260509064559 | 74 | 139 | 0.0 | 2.6 | 0.00 | 0.00 | 0.00 | 91 | 1010.8 |
| 20260509063121 | 74 | 139 | 0.0 | 4.3 | 0.00 | 0.00 | 0.00 | 91 | 1010.8 |
| 20260509061600 | 74 | 0 | 0.9 | 4.3 | 0.00 | 0.00 | 0.00 | 91 | 1010.8 |
| 20260509060058 | 74 | 0 | 0.0 | 6.1 | 0.00 | 0.00 | 0.00 | 91 | 1010.8 |
| 20260509054559 | 73 | 0 | 0.0 | 0.9 | 0.00 | 0.00 | 0.00 | 91 | 1010.5 |
| 20260509053058 | 73 | 0 | 0.0 | 2.6 | 0.00 | 0.00 | 0.00 | 90 | 1009.7 |
| 20260509051558 | 73 | 0 | 0.0 | 1.7 | 0.00 | 0.00 | 0.00 | 90 | 1009.6 |
| 20260509044606 | 74 | 132 | 0.0 | 4.3 | 0.00 | 0.00 | 0.00 | 89 | 1009.4 |
| 20260509043102 | 74 | 0 | 0.0 | 2.6 | 0.00 | 0.00 | 0.00 | 89 | 1009.8 |
| 20260509041557 | 74 | 128 | 0.0 | 6.1 | 0.00 | 0.00 | 0.00 | 89 | 1010.0 |
| 20260509034607 | 73 | 0 | 0.0 | 0.9 | 0.00 | 0.00 | 0.00 | 89 | 1010.0 |
| 20260509033111 | 73 | 0 | 0.0 | 1.7 | 0.00 | 0.00 | 0.00 | 89 | 1009.9 |
| 20260509031600 | 73 | 0 | 0.0 | 3.5 | 0.00 | 0.00 | 0.00 | 90 | 1009.7 |
| 20260509030059 | 73 | 0 | 0.0 | 3.5 | 0.00 | 0.00 | 0.00 | 90 | 1009.3 |
| 20260509024606 | 73 | 110 | 0.9 | 3.5 | 0.00 | 0.00 | 0.00 | 90 | 1009.1 |
| 20260509023058 | 73 | 0 | 0.0 | 0.9 | 0.00 | 0.00 | 0.00 | 89 | 1009.1 |
| 20260509021557 | 73 | 0 | 0.0 | 0.0 | 0.00 | 0.00 | 0.00 | 88 | 1009.0 |
| 20260509020058 | 74 | 0 | 0.0 | 0.9 | 0.00 | 0.00 | 0.00 | 87 | 1008.8 |
| 20260509014556 | 74 | 0 | 0.0 | 2.6 | 0.00 | 0.00 | 0.00 | 86 | 1008.6 |
| 20260509013110 | 75 | 109 | 0.0 | 3.5 | 0.00 | 0.00 | 0.00 | 86 | 1008.5 |
| 20260509011606 | 75 | 109 | 2.6 | 6.1 | 0.00 | 0.00 | 0.00 | 85 | 1008.5 |
| 20260509010058 | 75 | 108 | 0.9 | 6.1 | 0.00 | 0.00 | 0.00 | 85 | 1008.5 |
| 20260509004604 | 76 | 0 | 1.7 | 5.2 | 0.00 | 0.00 | 0.00 | 84 | 1008.6 |
| 20260509003056 | 76 | 97 | 0.9 | 6.1 | 0.00 | 0.00 | 0.00 | 84 | 1008.5 |
| 20260509001606 | 76 | 113 | 1.7 | 6.1 | 0.00 | 0.00 | 0.00 | 84 | 1008.5 |
| 20260509000056 | 76 | 103 | 1.7 | 5.2 | 0.00 | 0.00 | 0.00 | 83 | 1008.6 |
| 20260508234557 | 76 | 101 | 0.0 | 6.1 | 0.00 | 0.00 | 0.00 | 83 | 1008.7 |
| 20260508233101 | 76 | 0 | 0.9 | 6.1 | 0.00 | 0.00 | 0.00 | 82 | 1008.6 |
| 20260508231558 | 76 | 96 | 3.5 | 7.8 | 0.00 | 0.00 | 0.00 | 82 | 1008.5 |
| 20260508230103 | 76 | 119 | 1.7 | 7.8 | 0.00 | 0.00 | 0.00 | 81 | 1008.5 |
| 20260508224613 | 76 | 0 | 0.0 | 6.1 | 0.00 | 0.00 | 0.00 | 81 | 1008.7 |
| 20260508223058 | 77 | 107 | 1.7 | 6.1 | 0.00 | 0.00 | 0.00 | 80 | 1008.7 |